Regional Weather Roundup
Issued by NWS Albany, NY

Home | Current Version | Previous Version | Text Only | Print | Product List | Glossary On
Versions: 1 2 3 4 5 6 7 8 9 10 11 12 13 14 15 16 17 18 19 20 21 22 23 24 25 26 27 28 29 30 31 32 33 34 35 36 37 38 39 40 41 42 43 44 45 46 47 48 49 50
737
ASUS41 KALY 181110
RWRALY

NEW YORK STATE HOURLY WEATHER ROUNDUP
NATIONAL WEATHER SERVICE ALBANY NY
600 AM EST THU JAN 18 2018

NOTE: "FAIR" INDICATES FEW OR NO CLOUDS BELOW 12,000 FEET WITH NO
SIGNIFICANT WEATHER AND/OR NO OBSTRUCTIONS TO VISIBILITY.

NYZ032-033-038>043-046>054-057>066-NYZ062>081-082-084-181200-
EAST


CITY           SKY/WX    TMP DP  RH WIND       PRES   REMARKS
ALBANY         FAIR       4   0  83 CALM      30.08F
GLENS FALLS    FAIR      -5  -8  87 CALM      30.06F
POUGHKEEPSIE   FAIR       1  -3  83 CALM      30.05S
NEWBURGH       CLEAR      5   3  92 CALM      30.03F
MONTGOMERY     FAIR       1  -2  87 CALM      30.01F
WHITE PLAINS   FAIR      15   8  73 NW10      29.99F WCI   2
ISLIP          FAIR      20  13  74 N5        30.03R WCI  13
NEW YORK CITY  FAIR      21   9  59 N8        30.04S WCI  11
CENTRAL PARK   FAIR      19   9  65 MISG      30.04F
$$

NYZ005>009-017-018-044>046-055-056-181200-
CENTRAL


CITY           SKY/WX    TMP DP  RH WIND       PRES   REMARKS
FULTON         CLOUDY     1  -3  83 S6        30.05F WCI -10
SYRACUSE       FAIR      -4  -6  91 CALM      30.07S
ROME           FAIR      -7 -11  83 CALM      30.08F
ELMIRA         FAIR       2  -3  80 CALM      30.04F
BINGHAMTON     FAIR       7   2  80 SW7       29.97F WCI  -5
$$

NYZ026>034-041>043-087-181200-
NORTH


CITY           SKY/WX    TMP DP  RH WIND       PRES   REMARKS
WATERTOWN      CLOUDY    19  13  77 S10       30.00F HAZE    WCI   7
FORT DRUM      NOT AVBL
OGDENSBURG     CLOUDY    26  18  74 SW14G21   29.96F WCI  14
MASSENA        CLOUDY    23  19  85 SW12      29.96S WCI  12
SARANAC LAKE   CLOUDY    17  15  92 SW9       29.87F WCI   6
PLATTSBURGH    CLOUDY    19  13  77 SE8       29.98S WCI   9
$$

NYZ001>004-010>016-019>021-085-181200-
WEST


CITY           SKY/WX    TMP DP  RH WIND       PRES   REMARKS
NIAGARA FALLS  MOCLDY    20  11  68 SW22G31   30.04S WCI   3
BUFFALO        FAIR      18  10  71 W22G36    30.04F WCI   1
DUNKIRK        FAIR      15   5  64 SW14      30.09F WCI   0
JAMESTOWN      FAIR       6   2  83 SW14      30.04S WCI -11
WELLSVILLE     FAIR       8   1  73 W9        29.98F WCI  -5
ROCHESTER      FAIR      18   7  62 W15       30.04S WCI   4
PENN YAN       FAIR      14   0  53 SW9       30.03S WCI   2
$$

             KEY
       WCI = WIND CHILL INDEX
       VSB = VISIBILITY
       HX  = HEAT INDEX
$$




USA.gov is the U.S. government's official web portal to all federal, state and local government web resources and services.